Regional Weather Roundup
Issued by NWS

Home | Current Version | Previous Version | Text Only | Print | Product List | Glossary On
Versions: 1 2 3 4 5 6 7 8 9 10 11 12 13 14 15 16 17 18 19 20 21 22 23 24 25 26 27 28 29 30 31 32 33 34 35 36 37 38 39 40 41 42 43 44 45 46 47 48 49 50
000
ASUS45 KBOU 010807
RWRCO

WEATHER ROUNDUP FOR COLORADO
NATIONAL WEATHER SERVICE DENVER/BOULDER CO
200 AM MDT TUE SEP 01 2015

NOTE: "FAIR" INDICATES FEW OR NO CLOUDS BELOW 12000 FEET WITH NO
SIGNIFICANT WEATHER AND/OR OBSTRUCTIONS TO VISIBILITY.

COZ001>005-013-030-031-010900-
...NORTHWEST COLORADO...

CITY           SKY/WX    TMP DP  RH WIND       PRES   REMARKS
CRAIG          CLEAR     47  43  86 CALM      30.20F
HAYDEN         NOT AVBL
MEEKER         CLEAR     49  46  90 NE7       30.22F
MOUNT WERNER   NOT AVBL
STEAMBOAT SPGS CLEAR     47  43  87 CALM      30.26S
WALDEN         CLEAR     41  37  87 SE6       30.32S
$$

COZ006>008-011-010900-
...WEST CENTRAL VALLEYS...

CITY           SKY/WX    TMP DP  RH WIND       PRES   REMARKS
GRAND JUNCTION CLEAR     64  52  64 E5        30.10R
MONTROSE       PTCLDY    60  50  69 S5        30.19S
EAGLE          CLEAR     52  48  87 E5        30.28S
RIFLE          CLEAR     58  51  78 E6        30.17S
DELTA          PTCLDY    62  52  70 NE8       30.15S
NUCLA          PTCLDY    61  43  51 SE3       30.23S
$$

COZ017>023-064>068-010900-
...SOUTHWEST COLORADO...

CITY           SKY/WX    TMP DP  RH WIND       PRES   REMARKS
DURANGO        PTCLDY    56  44  64 N5        30.25S
CORTEZ         CLEAR     57  46  66 E6        30.20S
PAGOSA SPRINGS PTCLDY    51  42  70 CALM      30.33R
TELLURIDE      PTCLDY    53  46  76 SE5       30.43S
WOLF CREEK PAS MOCLDY    43  36  75 SW13      30.61F
$$

COZ009-010-012-014-032>034-037-058>063-010900-
...CENTRAL COLORADO...

CITY           SKY/WX    TMP DP  RH WIND       PRES   REMARKS
ASPEN          PTCLDY    49  44  83 SW7       30.31F
BUENA VISTA    PTCLDY    46  43  88 W5        30.33S
COPPER MTN     CLEAR     46  32  57 SW7       30.57F
BERTHOUD PASS  FAIR      39  28  65 W22G33    30.59F
COTTONWOOD PAS PTCLDY    55  34  44 W7        30.44F
GUNNISON       PTCLDY    48  39  71 CALM      30.35S
KREMMLING      PTCLDY    43  37  81 E3        30.32F
LEADVILLE      CLEAR     39  35  86 NE5       30.43F
MONARCH PASS   MOCLDY    45  36  70 W14       30.69S
SALIDA         PTCLDY    56  45  65 CALM      30.37S
SUNLIGHT       CLEAR     46  43  87 CALM      30.52F
WILKERSON PASS PTCLDY    45  39  81 SW7       30.55F
$$

COZ069>075-010900-
...SAN LUIS VALLEY/SANGRE DE CRISTO MOUNTAINS...

CITY           SKY/WX    TMP DP  RH WIND       PRES   REMARKS
ALAMOSA        PTCLDY    49  47  93 SE5       30.30F
LA VETA PASS   PTCLDY    48  39  71 CALM      30.48S
SAGUACHE       PTCLDY    48  45  87 NW6       30.33F
$$

COZ035-036-038>040-010900-
...NORTHERN COLORADO FRONT RANGE...

CITY           SKY/WX    TMP DP  RH WIND       PRES   REMARKS
DENVER INTL AP MOCLDY    60  55  83 SW12      30.11F
DMNS CITY PARK   N/A     60  53  77 SE9       30.11F
AURORA         MOCLDY    57  54  89 S8        30.14F
FRONT RANGE AP NOT AVBL
ERIE MUNI ARPT PTCLDY    58  55  88 CALM      30.10F
BOULDER MUN AP PTCLDY    61  50  67 CALM      30.10F
CENTENNIAL     PTCLDY    57  53  86 E5        30.15F
BROOMFIELD     PTCLDY    59  52  77 CALM      30.13F
FORT COLLINS   PTCLDY    59  52  77 SE5       30.10S
LONGMONT       PTCLDY    57  54  88 CALM      30.10F
$$

COZ041-046-047-076>085-087-088-010900-
...PIKES PEAK/PALMER DIVIDE AND SOUTHERN FOOTHILLS...

CITY           SKY/WX    TMP DP  RH WIND       PRES   REMARKS
COLO. SPRINGS  MOCLDY    62  51  67 NW9       30.18F
A. F. ACADEMY  PTCLDY    55  50  83 N7        30.20F
ELLICOTT       PTCLDY   N/A N/A N/A NE5       30.17S
FALCON         PTCLDY    60  48  65 MISG      30.22F
FORT CARSON    PTCLDY    61  52  71 NW10      30.15F
LIMON          MOCLDY    54  53  97 NW5       30.12F
MONUMENT HILL  PTCLDY    52  50  93 W9        30.23F
TRINIDAD       CLOUDY    64  51  62 CALM      30.16F
$$

COZ042>045-048>051-090-091-010900-
...NORTHEAST COLORADO...

CITY           SKY/WX    TMP DP  RH WIND       PRES   REMARKS
GREELEY ARPT   PTCLDY    55  48  76 CALM      30.08F
AKRON          PTCLDY    59  56  89 W7        30.06F
BURLINGTON     MOCLDY    62  59  90 NW10      30.04S
WRAY           CLOUDY    64  60  87 SW5       29.99S
STERLING       PTCLDY    57  55  94 SW6       30.02F
HOLYOKE        CLOUDY    66  61  82 W6        29.97F
FORT MORGAN    PTCLDY    56  54  91 W7        30.08S
$$

COZ086-089-092>099-010900-
...SOUTHEAST COLORADO...

CITY           SKY/WX    TMP DP  RH WIND       PRES   REMARKS
PUEBLO         PTCLDY    64  54  69 CALM      30.11S
LA JUNTA       MOCLDY    69  56  62 W6        30.07F
LAMAR          CLOUDY    66  61  84 SW5       30.02F
SPRINGFIELD      N/A     65  54  67 N6        30.05F
$$




USA.gov is the U.S. government's official web portal to all federal, state and local government web resources and services.